Time,TemperatureF,DewpointF,PressureIn,WindDirection,WindDirectionDegrees,WindSpeedMPH,WindSpeedGustMPH,Humidity,HourlyPrecipIn,Conditions,Clouds,dailyrainin,SoftwareType,DateUTC
2013-02-17 00:01:00,35.0,25.0,-100.00,SSW,195,1.0,3.0,66,-99.99,,,-99.99,,2013-02-17 08:01:00,
2013-02-17 01:01:00,39.0,23.0,-100.00,WNW,285,12.0,20.0,52,-99.99,,,-99.99,,2013-02-17 09:01:00,
2013-02-17 02:01:00,40.0,22.0,-100.00,West,280,17.0,24.0,48,-99.99,,,-99.99,,2013-02-17 10:01:00,
2013-02-17 03:01:00,38.0,22.0,-100.00,West,280,14.0,18.0,52,-99.99,,,-99.99,,2013-02-17 11:01:00,
2013-02-17 05:02:00,38.0,22.0,-100.00,West,265,12.0,17.0,52,-99.99,,,-99.99,,2013-02-17 13:02:00,
2013-02-17 06:01:00,34.0,22.0,-100.00,South,175,2.0,6.0,61,-99.99,,,-99.99,,2013-02-17 14:01:00,
2013-02-17 07:01:00,35.0,22.0,-100.00,WNW,285,5.0,7.0,58,-99.99,,,-99.99,,2013-02-17 15:01:00,
2013-02-17 08:01:00,35.0,22.0,-100.00,West,275,5.0,7.0,58,-99.99,,,-99.99,,2013-02-17 16:01:00,
2013-02-17 09:02:00,38.0,23.0,-100.00,WNW,285,5.0,12.0,54,-99.99,,,-99.99,,2013-02-17 17:02:00,
2013-02-17 11:20:00,44.0,24.0,-100.00,SW,230,12.0,13.0,44,-99.99,,,-99.99,,2013-02-17 19:20:00,
2013-02-17 12:01:00,44.0,24.0,-100.00,SW,230,12.0,13.0,44,-99.99,,,-99.99,,2013-02-17 20:01:00,
2013-02-17 12:11:00,44.0,24.0,-100.00,SW,230,12.0,13.0,44,-99.99,,,-99.99,,2013-02-17 20:11:00,
2013-02-17 14:01:00,48.0,23.0,-100.00,WSW,250,7.0,10.0,37,-99.99,,,-99.99,,2013-02-17 22:01:00,
2013-02-17 16:20:00,42.0,20.0,-100.00,North,350,13.0,17.0,41,-99.99,,,-99.99,,2013-02-18 00:20:00,
2013-02-17 17:01:00,42.0,20.0,-100.00,North,350,13.0,17.0,41,-99.99,,,-99.99,,2013-02-18 01:01:00,
2013-02-17 17:11:00,42.0,20.0,-100.00,North,350,13.0,17.0,41,-99.99,,,-99.99,,2013-02-18 01:11:00,
2013-02-17 18:01:00,41.0,20.0,-100.00,NNW,335,14.0,17.0,42,-99.99,,,-99.99,,2013-02-18 02:01:00,
2013-02-17 19:01:00,38.0,21.0,-100.00,North,355,9.0,13.0,49,-99.99,,,-99.99,,2013-02-18 03:01:00,
2013-02-17 20:01:00,36.0,21.0,-100.00,North,360,10.0,13.0,54,-99.99,,,-99.99,,2013-02-18 04:01:00,
2013-02-17 21:01:00,36.0,22.0,-100.00,NNW,345,10.0,13.0,56,-99.99,,,-99.99,,2013-02-18 05:01:00,
2013-02-17 22:02:00,36.0,22.0,-100.00,North,350,10.0,13.0,56,-99.99,,,-99.99,,2013-02-18 06:02:00,
2013-02-17 23:01:00,35.0,21.0,-100.00,NNW,345,10.0,13.0,56,-99.99,,,-99.99,,2013-02-18 07:01:00,